W5CGC Weather Reports


Display with metric or nautical units.
time (UTC)temp
F
wind
direction
speed
MPH
gust
MPH
rain 1hr
in
rain 24hr
in
rain mn
in
humidity
%
barometer
mb
20211023074534 70 205 0.0 2.0 0.00 0.05 0.00 81 1011.9
20211023073049 70 209 0.0 3.0 0.00 0.05 0.00 81 1011.9
20211023071552 69 205 0.0 3.0 0.00 0.05 0.00 82 1011.9
20211023070055 69 214 0.0 3.0 0.00 0.05 0.00 82 1012.0
20211023064544 68 217 0.0 1.0 0.00 0.05 0.00 83 1012.0
20211023063044 68 160 0.0 1.0 0.00 0.05 0.00 82 1012.1
20211023061518 69 207 0.0 1.0 0.00 0.05 0.00 81 1012.2
20211023060028 69 240 0.0 3.0 0.00 0.05 0.00 81 1012.3
20211023054509 68 245 0.0 0.0 0.00 0.05 0.00 81 1012.4
20211023053005 68 216 0.0 0.0 0.00 0.05 0.00 82 1012.4
20211023051503 68 231 0.0 0.0 0.00 0.05 0.00 82 1012.4
20211023050137 68 215 0.0 0.0 0.00 0.05 0.00 83 1012.5
20211023044642 67 230 0.0 2.0 0.00 0.05 0.05 82 1012.5
20211023043127 67 239 0.0 2.0 0.00 0.05 0.05 83 1012.7
20211023041623 66 234 0.0 3.0 0.00 0.05 0.05 85 1012.8
20211023040112 66 179 0.0 3.0 0.00 0.05 0.05 86 1012.8
20211023034651 65 267 0.0 3.0 0.00 0.05 0.05 86 1012.8
20211023033248 65 249 0.0 2.0 0.00 0.05 0.05 87 1012.7
20211023031630 65 186 0.0 3.0 0.00 0.05 0.05 88 1012.7
20211023030111 65 212 0.0 0.0 0.00 0.00 0.05 88 1012.8
20211023024704 65 223 0.0 1.0 0.00 0.05 0.05 88 1012.8
20211023023149 64 254 0.0 0.0 0.00 0.05 0.05 88 1012.8
20211023021640 65 255 0.0 0.0 0.00 0.05 0.05 88 1013.0
20211023020209 64 255 0.0 1.0 0.00 0.05 0.05 88 1012.9
20211023014609 64 252 0.0 0.0 0.02 0.05 0.05 88 1013.0
20211023013105 65 252 0.0 0.0 0.04 0.05 0.05 88 1013.0
20211023011606 65 252 0.0 0.0 0.05 0.05 0.05 87 1013.2
20211023010144 66 252 0.0 1.0 0.05 0.05 0.05 86 1013.1
20211023004626 66 18 0.0 2.0 0.03 0.03 0.03 81 1013.0
20211023003230 69 11 0.0 1.0 0.01 0.01 0.01 70 1013.0
20211023001640 74 238 0.0 0.0 0.00 0.00 0.00 52 1012.9
20211023000043 75 238 0.0 0.0 0.00 0.00 0.00 50 1012.9
20211022234621 77 238 0.0 1.0 0.00 0.00 0.00 49 1013.1
20211022233104 79 238 0.0 1.0 0.00 0.00 0.00 44 1013.1
20211022231628 80 207 0.0 2.0 0.00 0.00 0.00 41 1013.2
20211022230134 81 211 1.0 4.0 0.00 0.00 0.00 40 1013.2
20211022224542 82 161 1.0 6.0 0.00 0.00 0.00 39 1013.4
20211022223100 82 141 1.0 5.0 0.00 0.00 0.00 38 1013.4
20211022221557 82 108 1.0 8.0 0.00 0.00 0.00 37 1013.5
20211022220042 83 194 1.0 6.0 0.00 0.00 0.00 37 1013.4
20211022214548 83 231 1.0 6.0 0.00 0.00 0.00 37 1013.5
20211022213054 83 122 0.0 10.0 0.00 0.00 0.00 37 1013.7
20211022211524 84 162 1.0 6.0 0.00 0.00 0.00 36 1013.9
20211022210109 84 203 1.0 5.0 0.00 0.00 0.00 35 1013.9
20211022204544 83 129 1.0 6.0 0.00 0.00 0.00 36 1014.2
20211022203016 84 115 0.0 4.0 0.00 0.00 0.00 35 1014.4
20211022201523 83 72 1.0 4.0 0.00 0.00 0.00 34 1014.5
20211022200010 84 97 1.0 5.0 0.00 0.00 0.00 33 1014.7
20211022194537 83 166 1.0 6.0 0.00 0.00 0.00 33 1015.0
20211022191745 82 169 1.0 4.0 0.00 0.00 0.00 35 1015.6
20211022190122 80 68 0.0 3.0 0.00 0.00 0.00 34 1016.0
20211022184559 79 52 2.0 6.0 0.00 0.00 0.00 31 1016.4
20211022183232 79 31 1.0 4.0 0.00 0.00 0.00 31 1016.8
20211022181626 79 59 0.0 3.0 0.00 0.00 0.00 32 1017.1
20211022180224 78 76 0.0 5.0 0.00 0.00 0.00 33 1017.4
20211022174553 78 131 0.0 1.0 0.00 0.00 0.00 29 1017.7
20211022173057 77 72 0.0 3.0 0.00 0.00 0.00 31 1018.1
20211022171538 76 129 0.0 3.0 0.00 0.00 0.00 30 1018.3
20211022170057 75 70 0.0 2.0 0.00 0.00 0.00 31 1018.6
20211022164535 74 89 0.0 5.0 0.00 0.00 0.00 30 1018.7
20211022161521 72 56 0.0 4.0 0.00 0.00 0.00 32 1018.8
20211022160017 71 75 0.0 4.0 0.00 0.00 0.00 34 1019.1
20211022154515 70 198 0.0 3.0 0.00 0.00 0.00 36 1019.2
20211022153008 69 129 1.0 5.0 0.00 0.00 0.00 37 1019.1
20211022151750 68 79 0.0 4.0 0.00 0.00 0.00 40 1019.4
20211022150122 67 191 0.0 3.0 0.00 0.00 0.00 43 1019.5
20211022144652 65 59 0.0 3.0 0.00 0.00 0.00 44 1019.7
20211022143117 64 82 0.0 3.0 0.00 0.00 0.00 48 1019.7
20211022141610 62 66 0.0 1.0 0.00 0.00 0.00 54 1019.5
20211022140052 60 140 0.0 1.0 0.00 0.00 0.00 65 1019.5
20211022134552 58 187 0.0 0.0 0.00 0.00 0.00 69 1019.5
20211022133113 56 187 0.0 0.0 0.00 0.00 0.00 69 1019.4
20211022130102 55 187 0.0 0.0 0.00 0.00 0.00 69 1018.9
20211022124557 56 187 0.0 0.0 0.00 0.00 0.00 68 1018.7
20211022123050 56 187 0.0 0.0 0.00 0.00 0.00 67 1018.9
20211022121607 56 187 0.0 0.0 0.00 0.00 0.00 68 1018.9
20211022120041 56 187 0.0 0.0 0.00 0.00 0.00 67 1018.7
20211022114557 56 187 0.0 0.0 0.00 0.00 0.00 67 1018.7
20211022113051 57 187 0.0 0.0 0.00 0.00 0.00 66 1018.6
20211022111608 57 187 0.0 0.0 0.00 0.00 0.00 66 1018.2
20211022110101 57 187 0.0 0.0 0.00 0.00 0.00 65 1018.2
20211022104555 58 187 0.0 0.0 0.00 0.00 0.00 67 1018.0
20211022103027 58 187 0.0 0.0 0.00 0.00 0.00 68 1017.9
20211022101607 58 2 0.0 0.0 0.00 0.00 0.00 69 1018.0
20211022100053 58 2 0.0 0.0 0.00 0.00 0.00 69 1018.3
20211022094600 57 2 0.0 0.0 0.00 0.00 0.00 68 1018.2
20211022093059 57 2 0.0 0.0 0.00 0.00 0.00 68 1018.2
20211022091521 57 2 0.0 0.0 0.00 0.00 0.00 67 1018.3
20211022090020 57 2 0.0 0.0 0.00 0.00 0.00 67 1018.5
20211022084517 57 2 0.0 0.0 0.00 0.00 0.00 68 1018.6
20211022083023 56 2 0.0 0.0 0.00 0.00 0.00 68 1018.6
20211022081521 57 2 0.0 0.0 0.00 0.00 0.00 67 1018.6
20211022080031 58 2 0.0 0.0 0.00 0.00 0.00 65 1018.6